User: anonymous   Login
Location: Observatorio Las Palmas
(29.0667°N, 110.9333°W)
Time: 23:11:23
(UTC-07:00)
Language:

Skynet4D Del rocket - Orbit

View from above orbital plane
View from above orbital plane
View from above satellite
View from above satellite

Ground track
Ground track

The orbit data is extracted from the following two-line orbital elements,

1 25135U 98002B   17234.90629288  .00000129  00000-0  73923-5 0  9997
2 25135  26.8845 163.0805 0356411 194.7032 222.5489 13.62353484977633
Epoch (UTC): 22 August 2017 21:45:03
Eccentricity: 0.0356411
inclination: 26.8845°
perigee height: 763 km
apogee height: 1291 km
right ascension of ascending node: 163.0805°
argument of perigee: 194.7032°
revolutions per day: 13.62353484
mean anomaly at epoch: 222.5489°
orbit number at epoch: 97763

The dashed part of the orbit path shows where the satellite is in the earth's shadow,  

DLR